Weather Roundup
Issued by NWS

Home | Current Version | Previous Version | Graphics & Text | Print | Product List | Glossary Off
Versions: 1 2 3 4 5 6 7 8 9 10 11 12 13 14 15 16 17 18 19 20 21 22 23 24 25 26 27 28 29 30 31 32 33 34 35 36 37 38 39 40 41 42 43 44 45 46 47 48 49 50

000
NZUS93 KARX 291310
HRRWXR

CURRENT HOURLY OBSERVATIONS ACROSS
MUCH OF THE UPPER MISSISSIPPI VALLEY
NATIONAL WEATHER SERVICE LA CROSSE WI
800 AM CDT WED JUL 29 2015


...SOUTHEAST MINNESOTA...


CITY           SKY/WX    TMP DP  RH WIND       PRES   REMARKS
ROCHESTER      MOSUNNY   65  54  67 W14       30.03R
ROCHESTER/MAYO FAIR      65  53  63 W13G22    30.00F
WINONA         MOSUNNY   70  52  52 W7        29.97F
AUSTIN         SUNNY     66  54  63 W9        30.04R
ALBERT LEA     SUNNY     66  54  63 W7G16     30.04S
DODGE CENTER   SUNNY     63  55  77 W12       30.01S
PRESTON        MOSUNNY   65  54  65 W14       30.03S
OWATONNA       SUNNY     64  54  68 SW10      30.02R
FARIBAULT      SUNNY     66  55  68 W9        30.00S
$$

...ELSEWHERE IN MINNESOTA...


CITY           SKY/WX    TMP DP  RH WIND       PRES   REMARKS
MINNEAPOLIS    MOSUNNY   68  50  52 W16G24    29.94S
INTNL FALLS    LGT RAIN  63  54  72 SW21G37   29.55S
DULUTH         PTSUNNY   66  50  56 W17G31    29.74R
RED WING       SUNNY     70  52  52 W12G20    29.94S
REDWOOD FALLS  SUNNY     68  49  50 SW15G22   30.00R
MANKATO        SUNNY     64  52  63 W9        30.02R
WORTHINGTON    SUNNY     63  50  63 SW10      30.10S
FAIRMONT       SUNNY     64  48  55 W10       30.05S
$$

...SOUTHWEST WISCONSIN...


CITY           SKY/WX    TMP DP  RH WIND       PRES   REMARKS
LA CROSSE      PTSUNNY   73  54  51 W9        29.97S
PRAIRIE DU CHI CLOUDY    71  59  65 W3        30.01S
BOSCOBEL       PTSUNNY   73  63  70 SW5       30.01R
LONE ROCK      PTSUNNY   73  61  65 W8        30.00R
PLATTEVILLE    CLOUDY    70  67  90 W6        30.02R
FORT MC COY    PTSUNNY   69  56  63 CALM      29.98S
CAMP DOUGLAS   PTSUNNY   68  64  88 SW5       29.97S
VIROQUA        FAIR      69  58  67 W6        30.01S
WIS DELLS      CLOUDY    73  58  60 W9        29.98F
$$

...ELSEWHERE IN WISCONSIN...


CITY           SKY/WX    TMP DP  RH WIND       PRES   REMARKS
MILWAUKEE      CLOUDY    78  70  76 NW10G22   29.92F
MADISON        CLOUDY    73  68  84 NW6       29.96S
GREEN BAY      CLOUDY    74  60  61 W12       29.91R
EAU CLAIRE     SUNNY     69  53  56 SW14G23   29.91F
BLACK RVR FLS  FAIR      67  60  76 S5        29.95F
MEDFORD        MOSUNNY   66  54  64 SW14      29.92F
WAUSAU         PTSUNNY   69  56  62 SW8       29.91S
WIS RAPIDS     PTSUNNY   70  55  59 W8        29.96F
MARSHFIELD     PTSUNNY   67  56  67 SW9       29.94F
RICE LAKE      SUNNY     67  51  55 SW13G18   29.89S
$$

...NORTHEAST IOWA...


CITY           SKY/WX    TMP DP  RH WIND       PRES   REMARKS
DECORAH        MOSUNNY   68  59  73 VRB5      30.02S
MASON CITY     SUNNY     67  55  65 W13       30.08R
CHARLES CITY   MOSUNNY   66  61  82 W8        30.06R
OELWEIN          N/A     66  63  88 W3        30.06R
$$

...ELSEWHERE IN IOWA...


CITY           SKY/WX    TMP DP  RH WIND       PRES   REMARKS
DES MOINES     PTSUNNY   72  62  71 N10       30.09R
IOWA CITY      CLOUDY    72  67  84 NW7       30.04R
FORT DODGE     SUNNY     64  57  77 CALM      30.11R
$$

...NORTHERN ILLINOIS...


CITY           SKY/WX    TMP DP  RH WIND       PRES   REMARKS
CHICAGO-OHARE  CLOUDY    76  72  87 W9        29.95R
CHICAGO-MIDWAY CLOUDY    78  70  76 W10       29.96R
MOLINE         CLOUDY    76  70  82 NW6       30.01R
ROCKFORD       CLOUDY    75  69  81 N8        29.99S
PEORIA         PTSUNNY   77  73  87 NW6       30.00R
$$

NOTE: "FAIR" INDICATES FEW OR NO CLOUDS BELOW 12,000 FEET WITH NO
SIGNIFICANT WEATHER AND/OR OBSTRUCTIONS TO VISIBILITY. WIND
SPEEDS ARE IN MILES-PER-HOUR.



USA.gov is the U.S. government's official web portal to all federal, state and local government web resources and services.